Flag for Mozambique Weather past 2 weeks in Nampula, Mozambique

Now
73 °F

Passing clouds.


Feels Like: 70 °F
Forecast: 68 / 84 °F
Wind: N/A

Location: Nampula Airport

Current Time: May 3, 2015 at 9:58:01 PM

Latest Report: May 3, 2015 at 9:00 PM


Visibility: N/A

Pressure: 30.09 "Hg

Humidity: 94%

Dew point: 72 °F

Location of NampulaLocation

Historic Weather in Nampula — Graph

°F

Nampula temperature yesterday

Maximum temperature yesterday: 84 °F (at 3:00 PM)
Minimum temperature yesterday: 72 °F (at 7:00 AM)
Average temperature yesterday: 77 °F

Past Weeks' High & Low Weather Summary

 TemperatureHumidityPressure
High88 °F (Apr 30, 3:00 PM)100% (Apr 28, 5:00 AM)30.12 "Hg (Apr 28, 5:00 AM)
Low66 °F (Apr 28, 5:00 AM)31% (Apr 30, 4:00 PM)29.89 "Hg (Apr 29, 4:00 PM)
Average77 °F67%30.01 "Hg
* Reported Apr 19 3:00 PM — May 3 9:00 PM, Nampula, Weather by CustomWeather, © 2015

Note: Actual official high and low records may vary slightly from our data, if they occured in-between our weather recording intervals... More about our weather records

Advertising

Nampula weather history for previous 24 hours

 ConditionsComfort  
Time TempWeatherWind HumidityBarometerVisibility
9:00 PM
Sun, May 3
73 °FPassing clouds.N/A94%30.09 "HgN/A
8:00 PM75 °FPassing clouds.N/A78%30.07 "HgN/A
7:00 PM75 °FPassing clouds.N/A78%30.04 "HgN/A
5:00 PM79 °FBroken clouds.N/A70%30.01 "HgN/A
4:00 PM81 °FBroken clouds.N/A66%30.01 "HgN/A
3:00 PM82 °FOvercast.N/A62%30.01 "HgN/A
2:00 PM84 °FPartly sunny.N/A55%30.01 "HgN/A
11:00 AM81 °FPartly sunny.N/A66%30.09 "HgN/A
10:00 AM77 °FPartly sunny.N/A79%30.09 "HgN/A
8:00 AM72 °FPartly sunny.N/A83%30.12 "HgN/A
7:00 AM70 °FBroken clouds.N/A94%30.09 "HgN/A
6:00 AM68 °FScattered clouds.N/A88%30.07 "HgN/A
5:00 AM68 °FPassing clouds.N/A94%30.04 "HgN/A
2:00 AM70 °FClear.N/A88%30.04 "Hg10 mi
12:00 AM70 °FClear.N/A83%30.07 "Hg10 mi
10:00 PM
Sat, May 2
72 °FClear.N/A83%30.07 "Hg10 mi
9:00 PM72 °FClear.N/A83%30.07 "Hg10 mi
Weather by CustomWeather, © 2015

See weather overviewHow to use our weather pages